E1763 Weather Reports


time (UTC)temp
C
wind
direction
speed
KPH
gust
KPH
rain 1hr
cm
rain 24hr
cm
rain mn
cm
humidity
%
barometer
mb
20260509024508 13 210 0.0 0.0 0.00 0.03 0.03 81 1012.4
20260509023008 15 208 0.0 0.0 0.00 0.03 0.03 77 1012.2
20260509021505 16 257 0.0 0.0 0.00 0.03 0.03 76 1012.3
20260509020003 16 267 0.0 0.0 0.00 0.03 0.03 75 1012.4
20260509014502 16 247 0.0 0.0 0.00 0.03 0.03 74 1012.4
20260509013103 16 316 0.0 0.0 0.00 0.03 0.03 72 1012.4
20260509011601 17 304 0.0 0.0 0.00 0.03 0.03 70 1012.5
20260509010058 17 71 0.0 0.0 0.00 0.03 0.03 71 1012.6
20260509004608 17 28 0.0 0.0 0.00 0.03 0.03 69 1012.8
20260509003058 17 248 0.0 0.0 0.00 0.03 0.03 67 1012.7
20260509001555 18 5 0.0 0.0 0.00 0.03 0.03 69 1012.7
20260509000055 18 336 0.0 0.0 0.00 0.03 0.03 66 1012.7
20260508234553 17 315 0.0 0.0 0.00 0.03 0.03 69 1012.8
20260508233051 18 261 0.0 0.0 0.00 0.03 0.03 68 1012.9
20260508231550 18 360 0.0 0.0 0.00 0.03 0.03 68 1013.0
20260508230047 18 254 0.0 0.0 0.00 0.03 0.03 68 1013.2
20260508224606 18 24 0.0 0.0 0.00 0.03 0.03 70 1013.3
20260508223051 18 355 0.0 0.0 0.00 0.03 0.03 71 1013.4
20260508221542 19 318 0.0 0.0 0.00 0.03 0.03 69 1013.4
20260508220049 20 323 0.0 0.0 0.00 0.03 0.03 72 1013.5
20260508214539 19 250 0.0 0.0 0.00 0.03 0.03 73 1013.6
20260508213042 20 333 0.0 0.0 0.00 0.03 0.03 71 1013.6
20260508211537 20 262 0.0 0.0 0.00 0.03 0.03 70 1013.6
20260508210037 20 231 0.0 0.0 0.00 0.03 0.03 72 1013.8
20260508204535 19 216 0.0 0.0 0.00 0.03 0.03 69 1013.7
20260508203036 19 211 0.0 0.0 0.00 0.03 0.03 70 1013.8
20260508201533 20 263 0.0 0.0 0.00 0.03 0.03 71 1013.9
20260508200034 19 25 0.0 0.0 0.00 0.03 0.03 73 1013.9
20260508194536 19 194 0.0 0.0 0.00 0.03 0.03 78 1014.0
20260508193026 18 226 0.0 0.0 0.00 0.03 0.03 82 1014.2
20260508191529 17 350 0.0 0.0 0.00 0.03 0.03 82 1014.3
20260508190022 16 350 0.0 0.0 0.00 0.03 0.03 86 1014.5
20260508184521 15 19 0.0 0.0 0.00 0.03 0.03 91 1014.5
20260508183023 15 30 0.0 0.0 0.00 0.03 0.03 94 1014.7
20260508181514 13 248 0.0 0.0 0.00 0.03 0.03 96 1014.7
20260508180005 12 228 0.0 0.0 0.00 0.03 0.03 97 1014.7
20260508174502 11 323 0.0 0.0 0.00 0.03 0.03 97 1014.7
20260508173101 11 329 0.0 0.0 0.00 0.03 0.03 97 1014.8
20260508171557 11 202 0.0 0.0 0.00 0.03 0.03 97 1014.9
20260508170057 10 144 0.0 0.0 0.00 0.03 0.03 97 1014.9
20260508164556 10 272 0.0 0.0 0.00 0.03 0.03 97 1014.8
20260508163053 10 306 0.0 0.0 0.00 0.03 0.03 97 1014.8
20260508161558 10 233 0.0 0.0 0.00 0.03 0.03 97 1014.9
20260508160050 10 19 0.0 0.0 0.00 0.03 0.03 97 1014.7
20260508154607 10 266 0.0 0.0 0.00 0.03 0.03 97 1014.5
20260508153047 10 325 0.0 0.0 0.00 0.03 0.03 97 1014.4
20260508151550 10 20 0.0 0.0 0.00 0.03 0.03 97 1014.3
20260508150057 10 36 0.0 0.0 0.00 0.03 0.03 97 1014.3
20260508144546 10 360 0.0 0.0 0.00 0.03 0.03 97 1014.2
20260508143141 10 346 0.0 0.0 0.00 0.03 0.03 97 1014.0
20260508141540 10 343 0.0 0.0 0.00 0.03 0.03 96 1013.9
20260508140048 10 156 0.0 0.0 0.00 0.03 0.03 96 1013.6
20260508134540 10 74 0.0 0.0 0.03 0.03 0.03 97 1013.6
20260508133038 10 37 0.0 0.0 0.03 0.03 0.03 97 1013.7
20260508131537 10 360 0.0 0.0 0.03 0.03 0.03 96 1013.8
20260508130135 10 292 0.0 0.0 0.03 0.03 0.03 96 1013.7
20260508124534 10 85 0.0 0.0 0.00 0.03 0.00 96 1013.7
20260508123036 10 26 0.0 0.0 0.00 0.03 0.00 96 1013.7
20260508121534 10 12 0.0 0.0 0.00 0.03 0.00 96 1013.6
20260508120032 10 12 0.0 0.0 0.00 0.03 0.00 96 1013.7
20260508114534 10 12 0.0 0.0 0.00 0.03 0.00 96 1013.7
20260508113031 9 340 0.0 0.0 0.00 0.03 0.00 96 1013.9
20260508111530 10 251 0.0 0.0 0.00 0.03 0.00 96 1013.7
20260508110029 10 360 0.0 0.0 0.00 0.03 0.00 96 1013.7
20260508104528 10 5 0.0 0.0 0.00 0.03 0.00 96 1013.7
20260508103027 10 309 0.0 0.0 0.00 0.03 0.00 96 1013.8
20260508101528 10 296 0.0 0.0 0.00 0.03 0.00 96 1013.8
20260508100028 10 331 0.0 0.0 0.00 0.03 0.00 96 1013.9
20260508094524 10 24 0.0 0.0 0.00 0.03 0.00 96 1013.9
20260508093026 10 340 0.0 0.0 0.00 0.03 0.00 96 1013.9
20260508091522 10 332 0.0 0.0 0.00 0.03 0.00 96 1013.8
20260508090021 10 51 0.0 0.0 0.00 0.03 0.00 96 1013.7
20260508084519 10 15 0.0 0.0 0.00 0.03 0.00 96 1013.7
20260508083017 10 31 0.0 0.0 0.00 0.03 0.00 96 1013.5
20260508081516 10 336 0.0 0.0 0.00 0.03 0.00 96 1013.5
20260508080029 10 344 0.0 0.0 0.00 0.03 0.00 96 1013.3
20260508074514 10 230 0.0 0.0 0.00 0.03 0.00 96 1013.5
20260508073012 10 351 0.0 0.0 0.00 0.03 0.00 96 1013.4
20260508071513 10 54 0.0 0.0 0.00 0.03 0.00 96 1013.3
20260508070019 10 323 0.0 0.0 0.00 0.03 0.00 95 1013.3
20260508064527 10 349 0.0 0.0 0.00 0.03 0.03 95 1013.4
20260508063008 10 331 0.0 0.0 0.00 0.03 0.03 95 1013.5
20260508061510 10 23 0.0 0.0 0.00 0.03 0.03 95 1013.6
20260508060007 10 355 0.0 0.0 0.00 0.03 0.03 95 1013.9
20260508054507 10 355 0.0 0.0 0.00 0.03 0.03 95 1013.8
20260508053006 10 11 0.0 0.0 0.00 0.03 0.03 95 1013.9
20260508051506 10 58 0.0 0.0 0.00 0.03 0.03 95 1013.8
20260508050009 10 344 0.0 0.0 0.00 0.03 0.03 95 1013.9
20260508044505 10 278 0.0 0.0 0.00 0.03 0.03 94 1013.7
20260508043004 11 11 0.0 0.0 0.00 0.03 0.03 94 1013.6
20260508041604 11 19 0.0 0.0 0.00 0.03 0.03 94 1013.3
20260508040007 11 300 0.0 0.0 0.00 0.03 0.03 93 1013.0
20260508034502 11 355 0.0 0.0 0.00 0.03 0.03 93 1012.8
20260508033004 11 284 0.0 0.0 0.00 0.03 0.03 92 1012.6
20260508031504 11 298 0.0 0.0 0.00 0.03 0.03 91 1012.5